Tracking 33197 objects as of 18-Feb-2026
HD Live streaming from Space Station
objects crossing your sky now

INSAT 2B

Track INSAT 2B now!
INSAT 2B is classified as:


NORAD ID: 22724
Int'l Code: 1993-048B
Perigee: 35,805.5 km
Apogee: 35,952.4 km
Inclination: 14.4 °
Period: 1,440.5 minutes
Semi major axis: 42249 km
RCS: 19.9526 m2 (large)
Launch date: July 22, 1993
Source: India (IND)
Launch site: FRENCH GUIANA (FRGUI)

Second of Spain's communications satellites; 15 multi-frequency transponders
Your satellite tracking list
Your tracking list is empty




NASA's NSSDC Master Catalog

Two Line Element Set (TLE):
1 22724U 93048B   26048.97458105  .00000122  00000-0  00000-0 0  9995
2 22724  14.4141   3.4937 0017388 232.3943 310.2094  0.99968723119387
Source of the keplerian elements: AFSPC